Regional Weather Roundup
Issued by NWS State College, PA

Home | Current Version | Previous Version | Text Only | Print | Product List | Glossary Off
Versions: 1 2 3 4 5 6 7 8 9 10 11 12 13 14 15 16 17 18 19 20 21 22 23 24 25 26 27 28 29 30 31 32 33 34 35 36 37 38 39 40 41 42 43 44 45 46 47 48 49 50

600
ASUS41 KCTP 131803
RWRCTP

REGIONAL WEATHER ROUNDUP
NATIONAL WEATHER SERVICE STATE COLLEGE PA
100 PM EST SAT FEB 13 2016

Note: "fair" indicates few or no clouds below 12,000 feet with no
significant weather and/or obstructions to visibility.

* = STATION THAT DOES NOT REPORT PRECIPITATION /E.G. RAIN...SNOW...ETC/
    THUNDER OR FOG.

PAZ002>004-007>009-013>016-020>023-029>032-131900-
WESTERN PENNSYLVANIA

CITY           SKY/WX    TMP DP  RH WIND       PRES   REMARKS
ERIE           PTSUNNY    9  -1  64 NW15      30.36F WCI  -8
MEADVILLE      HVY SNOW   6  -1  73 W16G26    30.27R VSB 1/4 WCI -12
FRANKLIN*      CLOUDY     7  -2  66 NW7G22    30.26S VSB 1/2 WCI  -5
NEW CASTLE     FLURRIES  10  -5  50 W14G24    30.35S WCI  -6
BEAVER COUNTY  LGT SNOW  10   1  67 NW10G24   30.33R WCI  -3
BUTLER*        CLOUDY     9  -6  52 W9G22     30.33S WCI  -5
PITTSBURGH INT LGT SNOW  10  -1  61 NW20      30.32F WCI  -9
PITTSBURGH     LGT SNOW  11  -1  58 NW15G26   30.31S WCI  -5
INDIANA*       HAZE       9   1  72 NW12G24   30.27S VSB 1/4 WCI  -6
LATROBE        LGT SNOW  10  -2  56 NW16G22   30.30F WCI  -7
WASHINGTON CO* CLOUDY    10  -2  56 W9G17     30.34F WCI  -2
$$

PAZ004>006-010>012-017>019-024>028-033>037-041-042-045-046-049>053-131900-
CENTRAL PENNSYLVANIA

CITY           SKY/WX    TMP DP  RH WIND       PRES   REMARKS
BRADFORD       LGT SNOW   0 -10  63 NW17G25   30.11F WCI -21
DUBOIS         CLOUDY     5  -9  52 NW20G32   30.16F WCI -15
CLEARFIELD     LGT SNOW   7  -6  55 NW18G28   30.19S WCI -12
JOHNSTOWN      HVY SNOW   4  -4  69 W21G31    30.12R VSB 1/4 WCI -17
ALTOONA        CLOUDY    10  -3  55 NW17G30   30.18S WCI  -8
STATE COLLEGE  CLOUDY     9  -8  47 NW21G30   30.19S WCI -11
WILLIAMSPORT   CLOUDY    12 -13  31 NW18G37   30.21R WCI  -6
SELINSGROVE    CLOUDY    14  -7  38 NW15G35   30.23R WCI  -1
FT INDIANTOWN  PTSUNNY   15  -9  34 W20G36    30.18R WCI  -2
CAPITAL CITY   CLOUDY    17  -6  35 W21G32    30.23R WCI   0
HARRISBURG     PTSUNNY   16   0  49 NW28G36   30.21S WCI  -4
YORK           CLOUDY    16  -2  45 NW18G30   30.21R WCI   0
$$

PAZ038>040-043-044-047-048-054-055-060>062-067>071-131900-
EASTERN PENNSYLVANIA

CITY           SKY/WX    TMP DP  RH WIND       PRES   REMARKS
SCRANTON       CLOUDY     8  -9  45 NW22G29   30.11R WCI -12
MOUNT POCONO   CLOUDY     4 -11  50 NW25G35   29.95R WCI -19
ALLENTOWN      CLOUDY    17  -4  39 NW15G28   30.11S WCI   2
QUAKERTOWN*    MOCLDY    16  -4  41 NW12G24   30.11R WCI   3
READING        CLOUDY    17  -2  43 W31G41    30.16R WCI  -3
LANCASTER      CLOUDY    16   1  51 NW28G37   30.18R WCI  -4
COATESVILLE    LGT SNOW  14   5  67 NW24G32   30.14F WCI  -5
POTTSTOWN      CLOUDY    16  -3  43 NW20G32   30.15S WCI  -1
BLUE BELL        N/A     18   1  49 NW10G24   30.12F WCI   6
DOYLESTOWN     CLOUDY    16  -6  37 NW17G32   30.09S WCI   0
WILLOW GROVE   NOT AVBL
NORTH PHILA    PTSUNNY   21   0  39 W18G33    30.14S WCI   6
PHILADELPHIA   PTSUNNY   22  -6  29 W29G37    30.17R WCI   4
$$




USA.gov is the U.S. government's official web portal to all federal, state and local government web resources and services.